SCP
0 0 0 0 0 0 0 0 0 0 0 0 -0 -0 -0 -0 -0 0 0 0 0 0 -0 0 0 0 0 0 0 0 0 0 0 0 0 0 0 0 0 0 0 0 0 0 0 0 0 0 0 0 -0 0 0 0
0 0 0 0 0 0 0 0 0 0 0 0 0 -0 -0 -0 -0 0 0 0 0 0 -0 -0 -0 -0 0 0 0 0 0 0 0 0 0 0 0 0 0 0 0 0 0 0 0 0 0 0 0 0 0 0 -0 -0
0 0 0 0 0 0 0 0 0 0 0 0 0 -0 -0 -0 -0 0 0 0 0 0 -0 -0 0 0 0 0 0 0 0 0 0 0 0 0 0 0 0 0 0 0 0 0 0 0 0 0 0 0 0 0 -0 0
0 0 0 0 0 0 0 0 0 0 0 0 0 -0 -0 -0 -0 -0 0 0 0 -0 -0 -0 0 -0 0 0 0 0 0 0 0 0 0 0 0 0 0 0 0 0 0 0 0 0 0 0 0 0 0 -0 -0 0
0 0 0 0 0 0 0 0 0 0 0 0 -0 -0 -0 -0 -0 0 0 0 0 -0 -0 -0 -0 0 0 0 0 0 0 0 0 0 0 0 0 0 0 0 0 0 0 0 0 0 0 0 0 0 -0 -0 -0 -0
0 0 0 0 0 0 0 0 0 0 0 -0 -0 -0 -0 0 0 0 0 0 0 0 -0 -0 0 -0 -0 -0 0 0 0 0 0 0 0 0 0 0 0 0 0 0 0 0 0 0 0 0 0 0 -0 -0 -0 -0
0 0 0 0 0 0 0 0 0 0 0 -0 -0 -0 -0 -0 0 0 0 0 0 0 0 -0 -0 -0 0 0 0 0 0 0 0 0 0 0 0 0 0 0 0 0 0 0 0 0 -0 0 0 0 -0 -0 -0 -0
0 0 0 0 0 0 0 0 0 0 -0 -0 -0 -0 -0 0 0 -0 -0 -0 -0 -0 -0 0 -0 -0 -0 0 0 0 0 0 0 0 0 0 0 0 0 0 0 0 -0 -0 -0 0 0 0 0 -0 -0 -0 -0 -0
0 0 0 0 0 0 0 0 -0 -0 -0 -0 -0 -0 0 0 -0 -0 -0 0 -0 -0 -0 -0 -0 -0 -0 0 0 0 0 0 0 0 0 0 0 0 0 0 0 0 -0 -0 -0 -0 -0 -0 -0 -0 -0 -0 -0 -0
0 0 0 0 0 0 0 -0 -0 -0 -0 -0 0 0 0 -0 0 0 -0 -0 -0 -0 -0 -0 -0 -0 0 0 0 0 0 0 0 0 0 0 0 0 0 0 0 -0 0 -0 -0 -0 -0 -0 -0 -0 -0 -0 -0 -0
0 0 0 0 0 -0 -0 -0 -0 -0 0 0 0 0 0 -0 -0 -0 -0 -0 -0 -0 -0 -0 -0 -0 0 0 0 0 0 0 0 0 0 0 0 0 0 0 0 0 0 0 -0 -0 -0 -0 -0 -0 -0 -0 -0 -0
0 0 0 0 -0 -0 -0 -0 -0 0 0 0 -0 -0 0 -0 -0 -0 -0 -0 -0 -0 0 -0 -0 -0 0 0 0 0 0 0 0 0 0 0 0 0 0 0 0 0 0 -0 -0 -0 -0 -0 -0 -0 -0 -0 -0 -0
0 -0 -0 -0 -0 -0 -0 -0 -0 -0 -0 0 0 -0 -0 -0 -0 0 0 0 -0 -0 -0 -0 -0 0 -0 -0 0 0 0 0 0 0 0 0 0 0 0 0 0 -0 -0 0 0 0 0 0 -0 -0 -0 -0 -0 -0
-0 -0 -0 -0 -0 -0 -0 -0 -0 -0 0 0 0 0 0 0 0 0 -0 0 0 -0 -0 -0 0 -0 0 0 0 0 0 0 0 0 0 0 0 0 0 0 0 0 -0 -0 -0 0 0 0 -0 -0 -0 -0 -0 -0
-0 -0 -0 -0 -0 -0 -0 -0 -0 0 0 0 -0 0 0 0 0 0 -0 -0 -0 -0 -0 -0 0 0 0 0 0 0 0 0 0 0 0 0 0 0 0 0 0 0 0 -0 -0 -0 -0 -0 -0 -0 0 0 0 0
-0 -0 0 0 -0 -0 -0 -0 0 0 0 -0 -0 0 0 0 0 -0 -0 -0 -0 -0 -0 -0 0 0 0 0 0 0 0 0 0 0 0 0 0 0 0 0 0 0 0 -0 -0 -0 -0 -0 -0 -0 0 0 0 0
0 0 0 -0 -0 -0 -0 0 0 0 -0 0 0 0 0 -0 -0 -0 -0 -0 -0 -0 -0 -0 -0 -0 0 0 0 0 0 0 -0 0 0 0 0 0 0 0 0 0 0 -0 -0 -0 -0 -0 -0 -0 -0 -0 -0 -0
0 0 -0 -0 -0 0 0 0 0 -0 0 0 0 0 0 0 0 0 0 0 -0 0 0 0 0 -0 -0 -0 0 0 0 0 -0 0 0 0 0 0 0 0 0 0 0 -0 -0 -0 -0 -0 -0 -0 -0 -0 -0 -0
0 -0 -0 -0 0 0 0 0 0 0 0 0 0 0 0 0 0 -0 -0 0 0 0 0 0 -0 -0 -0 0 -0 -0 -0 0 0 0 0 0 0 0 0 0 -0 -0 -0 0 0 -0 -0 -0 -0 -0 -0 -0 -0 0
-0 -0 -0 -0 0 0 0 -0 0 0 0 0 0 0 0 0 0 0 0 0 0 -0 -0 0 -0 -0 -0 -0 -0 0 -0 -0 0 0 0 0 0 0 0 0 0 0 0 0 0 0 0 0 0 0 0 0 0 0
-0 0 0 0 0 0 -0 0 0 0 0 0 0 0 0 0 0 0 0 -0 -0 -0 -0 -0 -0 0 -0 -0 -0 0 0 -0 -0 0 0 0 0 0 0 0 0 0 0 0 0 0 0 0 0 0 0 0 0 0
0 0 0 0 0 0 -0 -0 0 0 0 0 0 0 0 0 0 0 -0 -0 -0 0 -0 -0 0 0 -0 0 0 -0 -0 -0 0 0 0 0 0 0 0 0 -0 -0 -0 0 0 0 0 0 0 0 0 0 0 0
-0 0 0 0 0 0 0 0 0 0 0 0 0 0 0 0 0 -0 -0 0 0 -0 -0 -0 -0 -0 -0 -0 -0 0 0 -0 -0 0 0 0 0 0 0 0 0 0 0 0 0 0 0 0 0 0 0 0 0 0
0 0 0 0 0 0 0 0 0 0 0 0 0 0 0 0 0 -0 -0 -0 -0 -0 -0 -0 0 0 0 -0 0 -0 -0 0 0 0 0 -0 0 0 0 0 0 0 0 0 0 0 0 0 0 0 0 0 0 0
0 0 0 0 0 0 0 0 0 0 0 0 0 0 0 0 0 0 0 0 0 -0 -0 0 0 0 0 0 -0 -0 -0 -0 0 0 0 0 0 0 0 0 0 0 0 0 0 0 0 0 0 0 0 -0 -0 -0
0 0 0 0 0 0 0 0 0 0 0 0 0 0 0 0 0 0 0 0 0 -0 -0 -0 0 0 0 0 0 0 0 0 0 0 0 -0 0 0 0 0 0 0 0 0 0 0 0 0 0 0 0 0 0 0
0 0 0 0 0 0 0 0 0 0 0 0 0 0 0 0 0 0 0 -0 -0 0 -0 -0 0 0 0 0 0 0 0 0 0 0 0 0 -0 0 -0 -0 -0 0 0 0 0 0 0 0 0 0 0 0 0 0
-0 0 0 0 0 0 0 0 0 0 0 0 0 0 0 0 0 0 0 0 -0 0 0 -0 0 0 0 0 0 -0 0 0 0 0 0 0 -0 -0 0 0 0 0 0 0 0 0 0 -0 -0 -0 -0 -0 0 0
0 0 0 0 0 0 0 0 0 0 0 0 0 0 0 0 0 0 0 0 0 0 0 0 0 0 0 0 0 0 0 0 0 0 0 0 0 0 -0 -0 0 0 0 0 0 0 0 0 0 -0 -0 0 0 0
0 0 0 0 0 0 0 -0 0 0 0 0 0 0 0 0 0 0 0 0 0 -0 0 0 0 0 0 0 0 0 0 0 0 0 0 -0 0 0 0 0 0 0 0 0 0 0 0 0 0 0 0 0 0 0
0 0 0 0 -0 -0 0 0 -0 0 0 0 0 0 0 0 0 -0 -0 0 0 0 0 0 0 0 0 0 0 0 0 0 0 0 0 -0 -0 -0 0 0 0 0 -0 0 0 0 0 0 0 0 0 0 0 0
0 0 0 0 0 0 0 0 0 -0 -0 -0 0 0 0 0 0 0 0 0 0 0 0 0 0 0 0 0 0 0 0 0 0 0 0 -0 -0 -0 -0 -0 -0 -0 -0 -0 -0 -0 -0 -0 -0 -0 -0 -0 0 0
0 0 0 0 0 0 0 0 0 0 0 0 0 0 0 0 0 0 0 0 0 0 0 0 -0 0 0 0 0 0 0 0 0 0 0 0 0 -0 0 -0 -0 -0 -0 -0 -0 -0 -0 -0 0 0 0 0 0 0
Wind_Speed_500mb
38 38 42 45 48 52 51 50 49 44 40 37 39 34 32 31 30 37 39 32 24 27 74 34 33 45 53 38 11 44 21 2 6 12 6 7 5 6 3 4 5 4 3 4 2 9 9 32 7 12 13 38 59 56
34 34 42 46 48 50 50 50 47 42 39 38 39 39 38 32 25 35 43 39 37 43 69 78 50 27 33 46 47 10 15 18 9 6 5 7 5 6 6 4 12 9 10 6 11 6 9 17 17 33 38 61 56 62
29 32 44 47 48 50 50 49 45 41 37 38 38 40 42 37 33 28 44 43 35 31 55 18 20 43 43 33 26 13 16 14 14 23 8 5 7 6 9 11 5 11 19 8 5 19 28 37 36 36 40 62 62 63
25 32 41 46 48 50 51 48 45 43 36 34 39 42 41 38 34 26 36 37 25 21 11 23 50 34 28 33 43 46 55 55 51 45 4 4 5 10 9 11 11 13 8 8 14 22 43 54 46 54 67 68 69 67
24 33 43 45 46 48 48 46 44 42 33 35 39 41 41 33 30 28 28 19 14 11 9 32 59 27 52 60 38 30 25 38 32 5 3 4 6 6 5 9 13 23 7 4 9 39 46 37 43 51 70 71 67 77
28 37 40 45 47 45 44 43 41 37 31 36 40 44 40 30 24 18 3 7 12 15 12 8 23 34 63 56 31 34 31 20 12 8 4 8 8 9 8 8 21 43 45 14 18 55 65 59 60 51 73 68 68 77
34 35 39 43 44 41 40 40 40 33 31 36 41 43 29 19 14 6 2 8 15 22 7 11 14 17 44 40 30 33 31 25 18 12 19 16 27 20 7 8 21 40 48 49 48 49 51 43 42 62 79 78 78 72
32 34 38 41 40 37 37 42 36 31 31 38 39 31 14 8 10 3 3 10 17 11 7 6 10 19 29 19 15 29 22 19 32 15 11 11 15 14 10 12 25 40 56 52 53 64 66 60 62 62 67 70 70 63
30 34 35 34 35 32 36 35 33 30 33 37 29 14 7 5 2 4 14 13 14 9 5 4 8 10 28 15 13 17 13 5 15 12 9 11 9 12 8 12 27 23 38 52 53 57 55 60 55 51 53 51 58 52
30 30 31 31 31 30 31 30 29 29 33 26 13 4 4 5 22 8 1 3 5 5 6 6 7 8 15 11 7 19 8 5 7 8 11 8 6 32 21 22 25 35 46 46 59 47 51 48 45 42 42 43 47 49
27 27 30 32 30 29 28 23 27 29 25 21 15 6 15 8 6 3 4 3 2 5 6 9 9 11 9 7 7 11 5 6 6 8 6 7 9 13 17 23 28 31 14 27 38 39 40 45 44 46 44 45 45 44
24 25 29 29 28 28 25 21 21 28 26 24 15 13 12 5 2 3 2 1 4 3 6 9 15 9 11 8 5 7 6 5 6 14 5 5 8 26 20 26 25 15 30 38 35 39 37 39 40 43 43 43 42 44
23 24 26 25 28 30 23 15 18 25 18 5 4 6 3 1 5 6 5 4 4 5 4 15 11 7 5 5 5 5 8 6 7 6 5 5 15 21 13 21 18 23 38 44 44 43 43 42 39 41 44 42 42 43
25 24 23 24 27 17 10 17 21 17 7 3 3 5 2 2 1 2 3 5 9 11 23 20 12 3 6 7 4 5 7 4 5 6 5 4 19 13 7 16 22 33 33 42 44 44 43 41 39 36 36 36 37 40
24 19 19 18 11 16 23 18 13 7 5 4 2 4 3 4 11 11 11 13 11 20 24 14 7 4 3 2 5 5 5 7 4 3 4 16 20 4 9 21 28 41 38 35 39 41 41 38 36 36 34 32 34 39
21 14 6 9 18 18 16 5 4 6 5 4 5 5 6 6 7 6 8 13 10 22 14 3 4 4 7 5 4 7 2 3 3 3 21 23 8 6 14 25 36 41 42 36 38 39 40 37 33 35 33 31 31 32
15 4 10 17 18 14 3 10 5 6 5 4 4 8 13 16 16 13 12 12 18 12 5 4 5 7 5 3 5 2 2 2 5 11 17 8 4 12 18 29 31 34 35 38 37 35 35 34 30 33 34 31 31 31
12 7 13 14 11 6 10 8 5 6 6 7 5 11 9 15 19 20 16 12 8 9 5 6 2 2 3 3 1 4 10 8 8 7 5 6 11 14 23 31 32 36 32 35 36 38 38 38 36 36 35 37 38 36
8 9 9 5 9 4 4 6 6 5 7 6 8 11 11 18 19 24 23 16 16 15 10 1 2 2 1 7 7 10 10 8 5 5 5 6 12 12 19 27 30 31 33 39 41 38 37 35 35 38 35 37 33 33
9 6 7 4 5 3 4 4 5 6 5 3 6 12 9 18 23 20 15 8 4 2 4 3 2 3 5 10 9 11 9 9 6 5 7 15 17 16 18 24 35 41 39 36 31 31 36 37 33 31 29 29 28 28
5 8 4 4 3 4 6 3 6 6 6 5 12 10 8 12 10 5 2 4 3 2 3 3 9 16 15 9 8 6 6 6 11 9 13 28 26 28 30 31 40 54 47 34 30 31 30 31 32 30 28 26 23 24
8 4 6 4 4 4 7 7 6 6 6 7 9 5 6 5 3 4 3 2 2 4 6 10 16 16 9 8 6 7 4 4 9 8 16 31 34 37 39 46 44 35 36 32 28 30 30 31 33 33 33 33 30 26
3 3 2 4 4 5 4 5 5 4 4 3 5 4 3 3 1 2 3 3 5 12 13 12 11 11 6 4 9 10 10 6 8 13 22 25 27 27 32 36 37 35 29 24 24 28 31 35 35 33 32 29 26 23
3 4 3 4 4 5 4 4 5 5 4 3 2 3 1 4 7 2 4 4 9 16 15 9 9 10 13 16 12 13 15 12 14 16 12 20 32 35 32 35 39 28 24 28 31 31 31 32 31 30 28 26 24 23
2 5 4 4 3 3 3 6 4 3 3 2 2 2 4 7 2 4 4 6 15 18 17 12 11 11 12 12 11 10 14 14 13 17 18 19 39 38 41 39 19 19 24 29 30 29 27 26 26 27 27 27 26 24
4 5 5 3 2 2 1 2 3 5 5 2 2 3 5 3 4 3 5 7 12 11 15 18 7 6 2 10 13 13 11 12 11 14 17 23 26 40 38 28 19 20 23 24 25 25 26 27 25 24 22 22 21 21
2 1 1 3 3 4 5 6 6 4 4 3 3 3 3 3 3 1 9 4 7 12 13 16 18 14 9 12 20 14 9 6 6 6 9 14 17 34 37 35 30 23 20 24 26 28 31 30 26 26 24 23 20 22
5 2 1 3 3 4 5 4 3 3 2 1 2 2 2 2 3 3 8 9 2 5 13 18 18 14 14 4 23 27 14 8 8 11 13 13 20 22 19 22 22 16 11 14 18 19 21 21 23 26 26 19 18 21
4 4 3 4 6 5 4 2 2 2 6 5 1 3 3 2 7 13 18 19 17 16 18 20 14 12 12 10 16 4 13 23 21 18 18 27 20 15 29 25 15 12 13 15 17 17 16 18 18 22 22 21 20 15
4 4 3 4 3 2 3 5 5 6 9 6 3 8 7 12 17 14 11 10 18 24 21 17 11 11 10 7 9 9 14 6 9 19 9 39 24 4 14 23 19 16 17 16 16 18 21 23 26 28 27 25 23 20
2 2 3 4 1 7 10 17 15 17 15 3 3 3 11 9 14 18 17 20 19 17 17 23 20 15 10 6 4 17 13 23 23 2 14 18 22 16 12 19 22 22 20 19 18 17 18 19 23 25 25 25 23 23
4 6 4 4 5 6 7 1 3 7 7 9 7 7 11 6 5 2 13 12 15 21 21 21 17 14 15 13 10 16 6 1 11 20 9 10 14 14 18 21 22 23 24 22 23 22 20 18 17 18 19 20 22 24
4 5 6 6 6 7 6 9 2 3 5 7 7 11 8 10 5 5 6 6 8 11 12 16 16 16 17 19 3 7 6 15 14 14 16 12 8 18 21 25 23 17 19 26 28 28 27 26 24 23 21 20 24 27
Wind_Direction_500mb
291 299 309 317 318 322 325 326 327 328 325 329 332 329 323 319 325 328 317 325 300 281 294 280 289 287 285 285 282 301 318 217 298 348 341 339 295 335 324 322 189 145 173 58 353 89 87 350 304 158 115 120 134 143
285 298 307 312 314 320 322 323 323 325 323 321 327 328 325 316 315 324 313 322 312 283 278 304 302 296 284 291 276 276 272 288 268 323 310 304 291 303 293 22 25 41 31 79 47 41 10 26 65 109 116 118 116 119
279 297 306 309 314 316 320 321 320 322 319 319 325 324 324 323 310 309 302 312 314 294 311 305 315 333 323 311 303 264 289 285 285 291 299 258 292 293 359 16 87 70 40 73 90 35 62 69 76 95 110 110 119 122
273 295 296 305 312 316 318 318 321 321 316 320 325 326 324 321 318 295 297 306 300 293 290 290 322 334 336 327 320 298 289 307 298 295 263 267 284 339 15 37 49 18 45 75 108 106 77 59 81 106 105 106 109 113
267 287 299 305 310 312 312 317 320 318 313 319 323 321 322 319 318 305 298 296 276 292 286 293 317 345 352 347 345 321 319 308 301 310 328 327 293 339 21 38 22 347 322 39 57 74 91 80 89 101 105 107 112 115
275 290 301 304 310 311 314 318 319 317 315 322 321 319 317 315 315 320 5 99 6 312 301 301 309 314 351 353 7 354 351 335 307 316 334 326 322 349 47 53 0 53 69 82 93 91 91 89 90 100 104 108 110 112
284 295 302 308 311 313 318 322 323 318 319 321 319 318 312 309 302 295 194 309 327 325 275 291 294 300 336 345 346 352 2 3 3 5 14 351 14 33 44 48 22 65 78 88 97 98 75 86 93 102 108 112 114 112
290 301 309 312 311 315 325 322 323 323 322 321 321 318 311 306 283 236 299 310 323 301 279 290 287 315 340 333 335 347 347 358 16 3 25 1 17 44 44 58 82 75 80 76 90 102 105 106 105 104 108 115 111 110
298 303 309 309 311 319 323 323 323 324 327 326 322 310 287 239 309 281 280 280 271 244 286 282 302 317 327 330 328 335 351 10 336 35 27 9 18 33 360 2 17 57 103 110 100 102 106 106 110 112 114 113 113 115
300 308 311 312 314 318 325 324 324 332 337 336 337 311 245 279 307 313 213 253 229 230 241 258 266 288 326 323 320 348 3 16 11 43 319 41 74 50 35 43 92 99 110 115 113 112 114 110 113 114 114 115 116 118
300 304 309 309 314 318 319 321 325 340 354 360 352 326 322 335 32 325 278 260 199 265 218 258 275 303 322 324 319 2 340 351 24 358 14 34 21 5 65 103 108 105 91 110 114 116 118 121 121 119 117 117 118 120
294 300 306 307 310 313 311 305 330 330 341 333 320 325 345 16 295 277 251 275 268 318 310 294 312 282 303 320 298 360 346 331 52 327 40 61 8 11 87 125 128 72 123 122 121 120 119 119 122 123 123 123 124 125
288 296 304 303 308 310 308 322 316 319 330 332 298 300 318 301 22 357 358 318 306 298 306 328 328 317 313 346 307 334 4 37 300 34 57 47 11 19 99 130 126 130 133 128 126 124 125 126 126 127 127 126 127 127
290 293 300 299 301 296 303 321 318 322 320 304 349 306 254 326 207 254 269 294 303 282 315 323 319 341 332 338 355 348 7 310 57 40 45 2 352 3 121 155 141 144 141 135 130 126 122 121 120 122 123 127 130 128
297 298 296 302 296 300 307 309 303 265 252 265 215 262 255 325 288 276 287 292 294 306 320 318 291 283 1 358 9 330 25 55 43 0 277 321 319 336 158 166 166 167 157 149 146 140 134 130 128 128 130 132 136 134
303 313 294 311 308 304 305 297 169 205 245 232 237 269 280 284 302 319 306 302 340 331 329 314 334 3 49 346 24 39 4 11 340 288 301 318 325 174 175 174 174 170 165 166 161 154 147 139 135 132 133 138 139 136
307 292 311 310 308 307 212 163 189 229 240 234 259 269 279 281 272 283 305 312 330 335 353 328 18 32 290 12 38 46 331 308 200 300 327 337 212 172 176 169 171 172 177 170 166 163 154 149 146 140 138 143 144 140
286 278 299 294 319 166 149 190 227 233 245 252 262 287 267 273 285 290 298 326 330 335 341 20 331 78 356 38 9 248 262 271 269 278 320 328 161 180 180 178 166 172 178 169 166 165 162 160 156 150 149 150 151 149
287 280 245 276 342 256 211 217 227 261 249 240 272 303 296 299 282 295 300 299 279 272 301 246 215 175 224 222 251 289 284 251 283 282 183 203 168 163 176 182 172 161 164 158 159 161 164 166 162 159 155 154 155 156
276 208 188 252 255 244 260 225 227 256 267 268 285 280 284 282 293 300 296 277 269 261 229 238 276 288 278 301 295 294 285 265 253 290 175 171 164 165 162 171 170 153 149 152 151 160 161 161 160 160 160 161 161 162
188 186 232 210 204 246 261 255 232 249 280 256 265 270 269 277 285 308 342 150 174 245 301 294 320 327 324 304 300 301 281 266 291 251 201 170 172 167 149 146 151 142 140 153 169 164 162 160 157 157 155 156 157 153
172 192 175 185 239 245 259 222 243 278 267 271 294 270 283 310 340 28 108 85 35 10 338 338 337 335 334 330 329 327 311 232 229 211 183 185 169 171 163 158 159 164 168 173 169 161 158 156 151 149 150 153 153 147
115 157 203 226 249 238 238 259 260 238 257 273 296 276 256 284 3 7 80 63 49 4 355 350 359 1 354 33 90 90 68 86 138 141 160 177 176 178 179 173 169 163 171 166 161 157 155 156 156 156 160 165 168 168
175 206 215 228 234 271 290 252 245 267 264 252 261 307 30 330 340 141 87 56 3 359 359 11 21 47 101 108 93 93 84 91 130 124 148 178 170 160 175 172 167 173 170 164 162 163 167 170 173 179 185 192 198 205
239 207 219 286 246 292 293 341 303 255 275 45 333 27 20 355 28 50 50 11 19 29 32 30 51 75 127 134 124 104 114 105 125 159 164 181 160 158 160 156 160 182 179 177 178 182 188 194 201 209 214 219 225 229
230 207 172 216 154 235 268 276 277 332 317 301 85 13 18 60 62 49 337 340 14 35 33 31 49 26 19 183 167 137 117 111 122 120 136 167 187 177 172 179 172 174 186 193 200 207 213 216 219 219 217 215 220 222
263 184 232 244 248 296 279 267 265 285 303 15 37 42 23 84 88 207 295 350 48 41 35 21 9 357 329 223 187 182 176 184 167 147 149 143 154 167 174 181 188 198 218 231 230 237 236 234 233 214 201 200 213 207
248 272 145 169 280 255 282 297 292 345 6 65 141 66 181 207 63 325 337 347 64 360 10 6 359 356 346 261 195 196 250 197 180 179 163 183 202 202 218 237 239 256 239 215 214 212 206 207 210 205 197 199 195 187
250 239 225 255 229 233 225 272 316 7 351 352 10 138 226 78 56 82 59 60 51 29 6 358 355 359 4 149 108 67 183 186 185 181 222 213 215 233 211 222 204 187 183 180 176 173 179 184 191 197 192 193 191 206
242 217 248 245 253 203 226 287 256 332 307 271 93 112 108 84 71 77 62 49 36 21 8 12 23 29 32 178 201 133 57 39 241 234 181 176 185 263 177 167 176 188 183 186 194 196 192 184 179 184 197 205 215 225
236 214 246 247 105 305 281 293 288 277 299 186 209 186 171 148 73 64 68 61 55 49 46 47 43 44 57 83 291 179 110 47 38 290 232 210 210 231 224 205 199 198 197 189 179 171 169 176 186 195 204 215 221 217
217 222 237 235 243 268 294 308 212 200 199 200 234 195 164 152 107 145 65 50 42 49 49 39 38 25 14 0 227 169 124 356 27 43 77 203 207 216 215 204 206 215 215 217 215 204 201 201 204 209 216 225 227 225
170 273 286 305 335 4 357 344 197 182 193 195 184 174 159 153 141 161 69 332 347 19 27 20 24 33 30 26 27 300 315 251 240 277 295 326 326 233 219 206 200 204 232 228 221 222 227 232 231 230 235 235 232 231
Wind_Speed_850mb
38 38 42 45 48 52 51 50 49 44 40 37 39 34 32 31 30 37 39 32 24 27 74 34 33 45 53 38 11 44 21 2 6 12 6 7 5 6 3 4 5 4 3 4 2 9 9 32 7 12 13 38 59 56
34 34 42 46 48 50 50 50 47 42 39 38 39 39 38 32 25 35 43 39 37 43 69 78 50 27 33 46 47 10 15 18 9 6 5 7 5 6 6 4 12 9 10 6 11 6 9 17 17 33 38 61 56 62
29 32 44 47 48 50 50 49 45 41 37 38 38 40 42 37 33 28 44 43 35 31 55 18 20 43 43 33 26 13 16 14 14 23 8 5 7 6 9 11 5 11 19 8 5 19 28 37 36 36 40 62 62 63
25 32 41 46 48 50 51 48 45 43 36 34 39 42 41 38 34 26 36 37 25 21 11 23 50 34 28 33 43 46 55 55 51 45 4 4 5 10 9 11 11 13 8 8 14 22 43 54 46 54 67 68 69 67
24 33 43 45 46 48 48 46 44 42 33 35 39 41 41 33 30 28 28 19 14 11 9 32 59 27 52 60 38 30 25 38 32 5 3 4 6 6 5 9 13 23 7 4 9 39 46 37 43 51 70 71 67 77
28 37 40 45 47 45 44 43 41 37 31 36 40 44 40 30 24 18 3 7 12 15 12 8 23 34 63 56 31 34 31 20 12 8 4 8 8 9 8 8 21 43 45 14 18 55 65 59 60 51 73 68 68 77
34 35 39 43 44 41 40 40 40 33 31 36 41 43 29 19 14 6 2 8 15 22 7 11 14 17 44 40 30 33 31 25 18 12 19 16 27 20 7 8 21 40 48 49 48 49 51 43 42 62 79 78 78 72
32 34 38 41 40 37 37 42 36 31 31 38 39 31 14 8 10 3 3 10 17 11 7 6 10 19 29 19 15 29 22 19 32 15 11 11 15 14 10 12 25 40 56 52 53 64 66 60 62 62 67 70 70 63
30 34 35 34 35 32 36 35 33 30 33 37 29 14 7 5 2 4 14 13 14 9 5 4 8 10 28 15 13 17 13 5 15 12 9 11 9 12 8 12 27 23 38 52 53 57 55 60 55 51 53 51 58 52
30 30 31 31 31 30 31 30 29 29 33 26 13 4 4 5 22 8 1 3 5 5 6 6 7 8 15 11 7 19 8 5 7 8 11 8 6 32 21 22 25 35 46 46 59 47 51 48 45 42 42 43 47 49
27 27 30 32 30 29 28 23 27 29 25 21 15 6 15 8 6 3 4 3 2 5 6 9 9 11 9 7 7 11 5 6 6 8 6 7 9 13 17 23 28 31 14 27 38 39 40 45 44 46 44 45 45 44
24 25 29 29 28 28 25 21 21 28 26 24 15 13 12 5 2 3 2 1 4 3 6 9 15 9 11 8 5 7 6 5 6 14 5 5 8 26 20 26 25 15 30 38 35 39 37 39 40 43 43 43 42 44
23 24 26 25 28 30 23 15 18 25 18 5 4 6 3 1 5 6 5 4 4 5 4 15 11 7 5 5 5 5 8 6 7 6 5 5 15 21 13 21 18 23 38 44 44 43 43 42 39 41 44 42 42 43
25 24 23 24 27 17 10 17 21 17 7 3 3 5 2 2 1 2 3 5 9 11 23 20 12 3 6 7 4 5 7 4 5 6 5 4 19 13 7 16 22 33 33 42 44 44 43 41 39 36 36 36 37 40
24 19 19 18 11 16 23 18 13 7 5 4 2 4 3 4 11 11 11 13 11 20 24 14 7 4 3 2 5 5 5 7 4 3 4 16 20 4 9 21 28 41 38 35 39 41 41 38 36 36 34 32 34 39
21 14 6 9 18 18 16 5 4 6 5 4 5 5 6 6 7 6 8 13 10 22 14 3 4 4 7 5 4 7 2 3 3 3 21 23 8 6 14 25 36 41 42 36 38 39 40 37 33 35 33 31 31 32
15 4 10 17 18 14 3 10 5 6 5 4 4 8 13 16 16 13 12 12 18 12 5 4 5 7 5 3 5 2 2 2 5 11 17 8 4 12 18 29 31 34 35 38 37 35 35 34 30 33 34 31 31 31
12 7 13 14 11 6 10 8 5 6 6 7 5 11 9 15 19 20 16 12 8 9 5 6 2 2 3 3 1 4 10 8 8 7 5 6 11 14 23 31 32 36 32 35 36 38 38 38 36 36 35 37 38 36
8 9 9 5 9 4 4 6 6 5 7 6 8 11 11 18 19 24 23 16 16 15 10 1 2 2 1 7 7 10 10 8 5 5 5 6 12 12 19 27 30 31 33 39 41 38 37 35 35 38 35 37 33 33
9 6 7 4 5 3 4 4 5 6 5 3 6 12 9 18 23 20 15 8 4 2 4 3 2 3 5 10 9 11 9 9 6 5 7 15 17 16 18 24 35 41 39 36 31 31 36 37 33 31 29 29 28 28
5 8 4 4 3 4 6 3 6 6 6 5 12 10 8 12 10 5 2 4 3 2 3 3 9 16 15 9 8 6 6 6 11 9 13 28 26 28 30 31 40 54 47 34 30 31 30 31 32 30 28 26 23 24
8 4 6 4 4 4 7 7 6 6 6 7 9 5 6 5 3 4 3 2 2 4 6 10 16 16 9 8 6 7 4 4 9 8 16 31 34 37 39 46 44 35 36 32 28 30 30 31 33 33 33 33 30 26
3 3 2 4 4 5 4 5 5 4 4 3 5 4 3 3 1 2 3 3 5 12 13 12 11 11 6 4 9 10 10 6 8 13 22 25 27 27 32 36 37 35 29 24 24 28 31 35 35 33 32 29 26 23
3 4 3 4 4 5 4 4 5 5 4 3 2 3 1 4 7 2 4 4 9 16 15 9 9 10 13 16 12 13 15 12 14 16 12 20 32 35 32 35 39 28 24 28 31 31 31 32 31 30 28 26 24 23
2 5 4 4 3 3 3 6 4 3 3 2 2 2 4 7 2 4 4 6 15 18 17 12 11 11 12 12 11 10 14 14 13 17 18 19 39 38 41 39 19 19 24 29 30 29 27 26 26 27 27 27 26 24
4 5 5 3 2 2 1 2 3 5 5 2 2 3 5 3 4 3 5 7 12 11 15 18 7 6 2 10 13 13 11 12 11 14 17 23 26 40 38 28 19 20 23 24 25 25 26 27 25 24 22 22 21 21
2 1 1 3 3 4 5 6 6 4 4 3 3 3 3 3 3 1 9 4 7 12 13 16 18 14 9 12 20 14 9 6 6 6 9 14 17 34 37 35 30 23 20 24 26 28 31 30 26 26 24 23 20 22
5 2 1 3 3 4 5 4 3 3 2 1 2 2 2 2 3 3 8 9 2 5 13 18 18 14 14 4 23 27 14 8 8 11 13 13 20 22 19 22 22 16 11 14 18 19 21 21 23 26 26 19 18 21
4 4 3 4 6 5 4 2 2 2 6 5 1 3 3 2 7 13 18 19 17 16 18 20 14 12 12 10 16 4 13 23 21 18 18 27 20 15 29 25 15 12 13 15 17 17 16 18 18 22 22 21 20 15
4 4 3 4 3 2 3 5 5 6 9 6 3 8 7 12 17 14 11 10 18 24 21 17 11 11 10 7 9 9 14 6 9 19 9 39 24 4 14 23 19 16 17 16 16 18 21 23 26 28 27 25 23 20
2 2 3 4 1 7 10 17 15 17 15 3 3 3 11 9 14 18 17 20 19 17 17 23 20 15 10 6 4 17 13 23 23 2 14 18 22 16 12 19 22 22 20 19 18 17 18 19 23 25 25 25 23 23
4 6 4 4 5 6 7 1 3 7 7 9 7 7 11 6 5 2 13 12 15 21 21 21 17 14 15 13 10 16 6 1 11 20 9 10 14 14 18 21 22 23 24 22 23 22 20 18 17 18 19 20 22 24
4 5 6 6 6 7 6 9 2 3 5 7 7 11 8 10 5 5 6 6 8 11 12 16 16 16 17 19 3 7 6 15 14 14 16 12 8 18 21 25 23 17 19 26 28 28 27 26 24 23 21 20 24 27
Wind_Direction_850mb
291 299 309 317 318 322 325 326 327 328 325 329 332 329 323 319 325 328 317 325 300 281 294 280 289 287 285 285 282 301 318 217 298 348 341 339 295 335 324 322 189 145 173 58 353 89 87 350 304 158 115 120 134 143
285 298 307 312 314 320 322 323 323 325 323 321 327 328 325 316 315 324 313 322 312 283 278 304 302 296 284 291 276 276 272 288 268 323 310 304 291 303 293 22 25 41 31 79 47 41 10 26 65 109 116 118 116 119
279 297 306 309 314 316 320 321 320 322 319 319 325 324 324 323 310 309 302 312 314 294 311 305 315 333 323 311 303 264 289 285 285 291 299 258 292 293 359 16 87 70 40 73 90 35 62 69 76 95 110 110 119 122
273 295 296 305 312 316 318 318 321 321 316 320 325 326 324 321 318 295 297 306 300 293 290 290 322 334 336 327 320 298 289 307 298 295 263 267 284 339 15 37 49 18 45 75 108 106 77 59 81 106 105 106 109 113
267 287 299 305 310 312 312 317 320 318 313 319 323 321 322 319 318 305 298 296 276 292 286 293 317 345 352 347 345 321 319 308 301 310 328 327 293 339 21 38 22 347 322 39 57 74 91 80 89 101 105 107 112 115
275 290 301 304 310 311 314 318 319 317 315 322 321 319 317 315 315 320 5 99 6 312 301 301 309 314 351 353 7 354 351 335 307 316 334 326 322 349 47 53 0 53 69 82 93 91 91 89 90 100 104 108 110 112
284 295 302 308 311 313 318 322 323 318 319 321 319 318 312 309 302 295 194 309 327 325 275 291 294 300 336 345 346 352 2 3 3 5 14 351 14 33 44 48 22 65 78 88 97 98 75 86 93 102 108 112 114 112
290 301 309 312 311 315 325 322 323 323 322 321 321 318 311 306 283 236 299 310 323 301 279 290 287 315 340 333 335 347 347 358 16 3 25 1 17 44 44 58 82 75 80 76 90 102 105 106 105 104 108 115 111 110
298 303 309 309 311 319 323 323 323 324 327 326 322 310 287 239 309 281 280 280 271 244 286 282 302 317 327 330 328 335 351 10 336 35 27 9 18 33 360 2 17 57 103 110 100 102 106 106 110 112 114 113 113 115
300 308 311 312 314 318 325 324 324 332 337 336 337 311 245 279 307 313 213 253 229 230 241 258 266 288 326 323 320 348 3 16 11 43 319 41 74 50 35 43 92 99 110 115 113 112 114 110 113 114 114 115 116 118
300 304 309 309 314 318 319 321 325 340 354 360 352 326 322 335 32 325 278 260 199 265 218 258 275 303 322 324 319 2 340 351 24 358 14 34 21 5 65 103 108 105 91 110 114 116 118 121 121 119 117 117 118 120
294 300 306 307 310 313 311 305 330 330 341 333 320 325 345 16 295 277 251 275 268 318 310 294 312 282 303 320 298 360 346 331 52 327 40 61 8 11 87 125 128 72 123 122 121 120 119 119 122 123 123 123 124 125
288 296 304 303 308 310 308 322 316 319 330 332 298 300 318 301 22 357 358 318 306 298 306 328 328 317 313 346 307 334 4 37 300 34 57 47 11 19 99 130 126 130 133 128 126 124 125 126 126 127 127 126 127 127
290 293 300 299 301 296 303 321 318 322 320 304 349 306 254 326 207 254 269 294 303 282 315 323 319 341 332 338 355 348 7 310 57 40 45 2 352 3 121 155 141 144 141 135 130 126 122 121 120 122 123 127 130 128
297 298 296 302 296 300 307 309 303 265 252 265 215 262 255 325 288 276 287 292 294 306 320 318 291 283 1 358 9 330 25 55 43 0 277 321 319 336 158 166 166 167 157 149 146 140 134 130 128 128 130 132 136 134
303 313 294 311 308 304 305 297 169 205 245 232 237 269 280 284 302 319 306 302 340 331 329 314 334 3 49 346 24 39 4 11 340 288 301 318 325 174 175 174 174 170 165 166 161 154 147 139 135 132 133 138 139 136
307 292 311 310 308 307 212 163 189 229 240 234 259 269 279 281 272 283 305 312 330 335 353 328 18 32 290 12 38 46 331 308 200 300 327 337 212 172 176 169 171 172 177 170 166 163 154 149 146 140 138 143 144 140
286 278 299 294 319 166 149 190 227 233 245 252 262 287 267 273 285 290 298 326 330 335 341 20 331 78 356 38 9 248 262 271 269 278 320 328 161 180 180 178 166 172 178 169 166 165 162 160 156 150 149 150 151 149
287 280 245 276 342 256 211 217 227 261 249 240 272 303 296 299 282 295 300 299 279 272 301 246 215 175 224 222 251 289 284 251 283 282 183 203 168 163 176 182 172 161 164 158 159 161 164 166 162 159 155 154 155 156
276 208 188 252 255 244 260 225 227 256 267 268 285 280 284 282 293 300 296 277 269 261 229 238 276 288 278 301 295 294 285 265 253 290 175 171 164 165 162 171 170 153 149 152 151 160 161 161 160 160 160 161 161 162
188 186 232 210 204 246 261 255 232 249 280 256 265 270 269 277 285 308 342 150 174 245 301 294 320 327 324 304 300 301 281 266 291 251 201 170 172 167 149 146 151 142 140 153 169 164 162 160 157 157 155 156 157 153
172 192 175 185 239 245 259 222 243 278 267 271 294 270 283 310 340 28 108 85 35 10 338 338 337 335 334 330 329 327 311 232 229 211 183 185 169 171 163 158 159 164 168 173 169 161 158 156 151 149 150 153 153 147
115 157 203 226 249 238 238 259 260 238 257 273 296 276 256 284 3 7 80 63 49 4 355 350 359 1 354 33 90 90 68 86 138 141 160 177 176 178 179 173 169 163 171 166 161 157 155 156 156 156 160 165 168 168
175 206 215 228 234 271 290 252 245 267 264 252 261 307 30 330 340 141 87 56 3 359 359 11 21 47 101 108 93 93 84 91 130 124 148 178 170 160 175 172 167 173 170 164 162 163 167 170 173 179 185 192 198 205
239 207 219 286 246 292 293 341 303 255 275 45 333 27 20 355 28 50 50 11 19 29 32 30 51 75 127 134 124 104 114 105 125 159 164 181 160 158 160 156 160 182 179 177 178 182 188 194 201 209 214 219 225 229
230 207 172 216 154 235 268 276 277 332 317 301 85 13 18 60 62 49 337 340 14 35 33 31 49 26 19 183 167 137 117 111 122 120 136 167 187 177 172 179 172 174 186 193 200 207 213 216 219 219 217 215 220 222
263 184 232 244 248 296 279 267 265 285 303 15 37 42 23 84 88 207 295 350 48 41 35 21 9 357 329 223 187 182 176 184 167 147 149 143 154 167 174 181 188 198 218 231 230 237 236 234 233 214 201 200 213 207
248 272 145 169 280 255 282 297 292 345 6 65 141 66 181 207 63 325 337 347 64 360 10 6 359 356 346 261 195 196 250 197 180 179 163 183 202 202 218 237 239 256 239 215 214 212 206 207 210 205 197 199 195 187
250 239 225 255 229 233 225 272 316 7 351 352 10 138 226 78 56 82 59 60 51 29 6 358 355 359 4 149 108 67 183 186 185 181 222 213 215 233 211 222 204 187 183 180 176 173 179 184 191 197 192 193 191 206
242 217 248 245 253 203 226 287 256 332 307 271 93 112 108 84 71 77 62 49 36 21 8 12 23 29 32 178 201 133 57 39 241 234 181 176 185 263 177 167 176 188 183 186 194 196 192 184 179 184 197 205 215 225
236 214 246 247 105 305 281 293 288 277 299 186 209 186 171 148 73 64 68 61 55 49 46 47 43 44 57 83 291 179 110 47 38 290 232 210 210 231 224 205 199 198 197 189 179 171 169 176 186 195 204 215 221 217
217 222 237 235 243 268 294 308 212 200 199 200 234 195 164 152 107 145 65 50 42 49 49 39 38 25 14 0 227 169 124 356 27 43 77 203 207 216 215 204 206 215 215 217 215 204 201 201 204 209 216 225 227 225
170 273 286 305 335 4 357 344 197 182 193 195 184 174 159 153 141 161 69 332 347 19 27 20 24 33 30 26 27 300 315 251 240 277 295 326 326 233 219 206 200 204 232 228 221 222 227 232 231 230 235 235 232 231